Location: Shenandoah County Park
(38.9356°N, 78.4524°W)
Time: 13:23:07
(UTC-05:00)

Vanguard 2 Rocket - Pass Details

Date: 09 December 2023
Orbit: 555 x 3309 km, 32.9° (Epoch: 02 March)

Event Time Altitude Azimuth Distance (km) Brightness Sun altitude
Rises 19:22:24 0° 282° (WNW) 7,191 12.5 -28.6°
Reaches altitude 10° 19:27:34 10° 277° (W) 6,255 12.0 -29.5°
Maximum altitude 19:45:18 41° 216° (SW) 3,899 10.2 -33.0°
Drops below altitude 10° 19:59:08 10° 153° (SSE) 4,911 10.4 -35.7°
Enters shadow 19:59:18 10° 152° (SSE) 4,939 10.4 -35.7°
Sets 20:02:40 0° 145° (SE) 5,575 - -36.4°
